Other Public Products
Issued by NWS Grand Forks, ND

Home | Current Version | Previous Version | Text Only | Print | Product List | Glossary On
Versions: 1 2 3 4 5 6 7 8 9 10 11 12 13 14 15 16 17 18 19 20 21 22 23 24 25 26 27 28 29 30 31 32 33 34 35 36 37 38 39 40 41 42 43 44 45 46 47 48 49 50
000
FPUS83 KFGF 280731
OPUFGF
PRAIRIE TO PINES WEATHER ROUNDUP
NATIONAL WEATHER SERVICE EASTERN NORTH DAKOTA/GRAND FORKS ND
200 AM CDT FRI JUL 28 2017

 **SATELLITE DATA USED TO AUGMENT SKY COVER AT AUTOMATED STATIONS**
 *****  WEATHER ACROSS EASTERN NORTH DAKOTA  *****

CITY           SKY/WX    TMP DP  RH WIND       PRES   REMARKS
GRAND FORKS    FAIR      63  61  93 CALM      30.05S
GRAND FORKS AF FAIR      58  56  94 CALM      30.06S
GRAND CITY NWS NOT AVBL
BUXTON           N/A     65  63  94 SE2         N/A
DEVILS LAKE    FAIR      68  60  75 SE6       30.08S
FARGO          FAIR      64  61  90 CALM      30.06S
WAHPETON ARPT  FAIR      63  59  88 NE5       30.08R
$$

 *****  WEATHER ACROSS CENTRAL AND WESTERN NORTH DAKOTA  *****

CITY           SKY/WX    TMP DP  RH WIND       PRES   REMARKS
JAMESTOWN      FAIR      62  58  86 CALM      30.07S
BISMARCK       MOCLDY    68  58  70 SE8       30.05S
MINOT          FAIR      69  60  73 SE9       30.03S
MINOT AFB      FAIR      65  60  82 SE7       30.01F
GARRISON         N/A     64  62  93 SE6       30.04S
WILLISTON      FAIR      63  60  90 CALM      30.01S
DICKINSON      FAIR      60  59  96 SE5       30.04S
HETTINGER      FAIR      60  54  80 SE5       30.07F
$$

 *****  OTHER OBSERVATIONS NORTHEAST NORTH DAKOTA  *****

CITY           SKY/WX    TMP DP  RH WIND       PRES   REMARKS
WALHALLA       NOT AVBL
LANGDON        FAIR      57  57 100 SE3       30.09F
CAVALIER       FAIR      63  61  94 CALM      30.05S
GRAFTON        FAIR      61  61 100 CALM      30.07S
CANDO          NOT AVBL
FORT TOTTEN      N/A     68  57  67 SE6       29.95S
ROLLA            N/A     55  55 100 SW5       30.08F
RUGBY          NOT AVBL
 ***** THE ABOVE OBSERVATIONS ARE NON NWS ARE NOT QUALITY
        CONTROLLED AND MAY MIS-REPORT RAIN FOR SNOW...
$$

 *****  OTHER OBSERVATIONS SOUTHEAST NORTH DAKOTA *****

CITY           SKY/WX    TMP DP  RH WIND       PRES   REMARKS
COOPERSTOWN    FAIR      59  57  94 SE3       30.09S
VALLEY CITY    FAIR      61  61 100 CALM      30.09S
OAKES          NOT AVBL
GWINNER        SUNNY     59  59 100 CALM      30.08S
SHEYENNE NWR     N/A     59  59  99 E5        29.95S
BUFFALO          N/A     62  55  78 W8          N/A
WYNDMERE       NOT AVBL
 ***** THE ABOVE OBSERVATIONS ARE NON NWS ARE NOT QUALITY
       CONTROLLED AND MAY MIS-REPORT RAIN FOR SNOW...
$$

  *****  WEATHER ACROSS NORTHERN MINNESOTA  *****

CITY           SKY/WX    TMP DP  RH WIND       PRES   REMARKS
FLAG ISLAND    FAIR      70  61  73 CALM      30.07R
WARROAD        FAIR      59  55  88 CALM      30.08S
ROSEAU         FAIR      61  55  82 CALM      30.07S HAZE
HALLOCK        FAIR      59  57  94 SE3       30.06S
THF RVR FALLS  FAIR      60  59  96 CALM      30.09S
HALSTAD          N/A     61  59  93 SE3         N/A
FOSSTON        FAIR      57  54  88 CALM      30.10R
BAUDETTE       FAIR      56  55  97 CALM      30.08S
WASKISH        FAIR      57  55  94 CALM      30.09S
CROOKSTON      FAIR      63  61  94 SE3       30.07F
$$
  *****  WEATHER ACROSS CENTRAL AND WEST MINNESOTA  *****

CITY           SKY/WX    TMP DP  RH WIND       PRES   REMARKS
BEMIDJI        FAIR      55  53  90 CALM      30.10R
PARK RAPIDS    FAIR      60  56  86 CALM      30.10R
WADENA         FAIR      57  57 100 CALM      30.09S
DETROIT LAKES  FAIR      64  61  88 CALM      30.11S
MOORHEAD       FAIR      63  57  82 CALM      30.08R
FERGUS FALLS   FAIR      66  61  82 E5        30.07S
ELBOW LAKE     FAIR      69  65  84 NE5       30.08R
MORRIS MN      FAIR      64  61  88 CALM      30.06S
STAPLES        FAIR      59  57  94 CALM      30.09S
WHEATON        FAIR      63  57  82 CALM      30.09R
$$
  *****  WEATHER ELSEWHERE ACROSS MINNESOTA  *****

CITY           SKY/WX    TMP DP  RH WIND       PRES   REMARKS
DULUTH         FAIR      57  54  89 E3        30.09S
INTRNTL FALLS  FAIR      53  51  93 CALM      30.08S
ELY            FAIR      54  54 100 CALM      30.11S
CLOQUET        FAIR      57  55  94 CALM      30.11R
BRAINERD       FOG       59  59 100 CALM      30.09R VSB 1/2
HIBBING        FAIR      50  50 100 SE7       30.09S FOG
ALEXANDRIA     FAIR      66  62  87 NE3       30.10R
SAINT CLOUD    FAIR      60  60 100 NE3       30.07R
MINNEAPOLIS    FAIR      70  62  76 CALM      30.05R
$$

  *****  WEATHER ACROSS SOUTH DAKOTA  *****

CITY           SKY/WX    TMP DP  RH WIND       PRES   REMARKS
SIOUX FALLS    FAIR      63  61  93 NE3       30.07F
BROOKINGS      FAIR      66  62  87 CALM      30.09S
WATERTOWN      FAIR      68  60  75 CALM      30.08S
HURON          FAIR      67  64  90 SE7       30.05S
SISSETON         N/A     62  59  90 CALM      30.07R
ABERDEEN       FAIR      67  62  84 SE5       30.07R
MITCHELL       FAIR      67  64  90 E5        30.06S
PIERRE         CLOUDY    73  58  59 SE9       30.04R
MOBRIDGE       LGT RAIN  73  62  68 SE10      30.03S
RAPID CITY     FAIR      60  54  80 W7        30.06S
$$

  *****  SOME WEATHER IN NEARBY STATES *****

CITY           SKY/WX    TMP DP  RH WIND       PRES   REMARKS
GLASGOW MT     FAIR      67  52  58 E15       29.95R
GREAT FALLS MT FAIR      68  41  37 SW10      29.99R
CHEYENNE WY    FAIR      64  56  75 E7        30.18R
SCOTTSBLUFF NE CLOUDY    65  63  93 E17       30.09F
OMAHA NE       FAIR      67  63  87 N7        30.02S
DES MOINES IA  FAIR      70  62  76 N3        30.00S
DAVENPORT IA   FAIR      63  61  93 NE3       30.02R
CHICAGO IL     FAIR      70  61  73 N12       29.94S
EAU CLAIRE WI  FAIR      64  60  87 NE5       30.04R
LA CROSSE WI   FAIR      69  66  90 SE3       30.01S
$$

  *****  SOME NATIONAL WEATHER *****

CITY           SKY/WX    TMP DP  RH WIND       PRES   REMARKS
LA GUARDIA NY  MOCLDY    74  70  87 S5        29.84F
RALEIGH NC     MOCLDY    77  74  90 SW6       29.89F
ATLANTA GA     MOCLDY    74  72  93 S5        29.95F
NEW ORLEANS LA FAIR      79  75  87 W6        29.95F
OKLAHOMA CITY  MOCLDY    80  75  84 N7        29.92F
ALBUQUERQUE NM RAIN      68  63  84 E10       30.26R
SALT LAKE CITY FAIR      75  60  59 S3        30.07S
LOS ANGELES CA FAIR      67  64  90 W6        29.92S
BOISE ID       FAIR      74  45  35 SE9       29.98S
SEATTLE WA     FAIR      61  54  77 N8        30.10S
$$

*** WEATHER ACROSS MANITOBA...SASKATCHEWAN AND ONTARIO ***
                ***ONTARIO***

CITY           SKY/WX    TMP DP  RH WIND       PRES   REMARKS
GERALDTON      CLEAR     52  48  87 N2        30.11S
THUNDER BAY    PTCLDY    57  57 100 CALM      30.08R
SIOUX LOOKOUT  CLEAR     52  52 100 CALM      30.09R
TORONTO        PTCLDY    64  59  82 N8        29.93S
BIG TROUT LK   MOCLDY    68  55  64 SW7       29.98F
PICKLE LAKE    NOT AVBL
DRYDEN         CLEAR     66  57  72 SW2       30.09S
KENORA         CLEAR     68  57  68 SW3       30.09S
$$
                *** MANITOBA***

CITY           SKY/WX    TMP DP  RH WIND       PRES   REMARKS
BRANDON        CLEAR     59  55  88 E3        30.04F
DAUPHIN        CLEAR     68  59  73 SW9       30.00S
ISLAND LAKE    NOT AVBL
PILOT MOUND      N/A     59  55  88 SE8         N/A
THE PAS        CLEAR     68  59  73 S7        29.91S
THOMPSON       PTCLDY    68  57  68 SW3       29.87F
WINNIPEG       CLEAR     64  59  82 CALM      30.05
LYNN LAKE      MOCLDY    64  57  77 SW3       29.82F
CHURCHILL      LGT RAIN  54  52  94 E15       29.80F
GILLAM         CLEAR     70  59  68 SW9       29.85F
$$
                ***SASKATCHEWAN***

CITY           SKY/WX    TMP DP  RH WIND       PRES   REMARKS
ESTEVAN        PTCLDY    59  59 100 SE2       30.01S
KINDERSLEY     MOCLDY    70  57  64 S14G20    29.83R
LLOYDMINSTER   MOCLDY    68  54  60 NW33G48   29.85R THUNDER
PRINCE ALBERT  PTCLDY    66  59  77 S7        29.87F
REGINA         PTCLDY    64  59  82 SE13      29.97S
YORKTON        CLEAR     63  59  88 S6        29.99S


USA.gov is the U.S. government's official web portal to all federal, state and local government web resources and services.